Temp
-10 -10 -11 -11 -11 -10 -10 -10 -10 -10 -11 -10 -11 -10 -10 -11 -11 -12 -12 -13 -14 -15 -14 -14 -14 -13 -14 -13 -14 -14 -14 -14 -14 -14 -14 -15 -15 -16 -16 -15 -15 -15 -15 -15
-11 -10 -11 -11 -11 -11 -11 -11 -10 -10 -10 -10 -11 -10 -10 -12 -12 -13 -14 -14 -16 -16 -16 -16 -15 -14 -14 -14 -14 -14 -14 -14 -14 -14 -14 -15 -15 -15 -15 -16 -16 -16 -16 -16
-11 -11 -10 -10 -10 -10 -11 -11 -11 -11 -11 -11 -14 -11 -9 -14 -13 -15 -15 -16 -16 -17 -16 -16 -16 -15 -15 -15 -15 -15 -14 -14 -14 -14 -14 -14 -15 -15 -15 -16 -16 -16 -16 -16
-11 -11 -11 -11 -10 -11 -11 -12 -12 -12 -12 -11 -13 -16 -9 -14 -14 -15 -16 -16 -15 -15 -16 -17 -17 -16 -15 -15 -15 -15 -15 -15 -15 -15 -15 -15 -15 -15 -16 -16 -16 -16 -16 -15
-10 -11 -10 -10 -11 -11 -11 -13 -13 -14 -14 -13 -9 -16 -9 -14 -14 -16 -16 -16 -15 -14 -15 -16 -16 -17 -16 -16 -16 -15 -15 -16 -16 -16 -16 -15 -15 -15 -15 -16 -16 -16 -16 -16
-11 -11 -11 -11 -11 -12 -12 -13 -14 -14 -15 -15 -12 -15 -11 -14 -15 -16 -16 -17 -17 -16 -16 -16 -16 -17 -17 -16 -16 -16 -16 -15 -16 -16 -16 -16 -16 -16 -16 -16 -16 -16 -16 -16
-11 -12 -12 -11 -11 -13 -13 -14 -15 -15 -15 -16 -14 -14 -13 -14 -17 -17 -17 -17 -16 -16 -15 -16 -16 -16 -17 -17 -17 -17 -16 -15 -16 -16 -16 -16 -16 -16 -16 -16 -16 -16 -16 -16
-11 -12 -12 -12 -13 -14 -15 -15 -16 -17 -16 -16 -15 -16 -14 -16 -16 -17 -18 -17 -16 -15 -15 -15 -16 -17 -17 -17 -17 -17 -16 -16 -16 -16 -16 -16 -16 -16 -16 -16 -16 -16 -17 -17
-12 -13 -12 -13 -14 -15 -16 -16 -17 -17 -17 -17 -15 -15 -15 -16 -18 -18 -17 -17 -17 -18 -18 -16 -16 -16 -16 -15 -16 -16 -16 -16 -16 -16 -16 -16 -16 -16 -16 -17 -17 -17 -17 -17
-13 -12 -14 -15 -15 -16 -17 -17 -18 -18 -18 -18 -16 -16 -15 -19 -18 -18 -18 -19 -19 -19 -18 -18 -17 -17 -17 -17 -17 -16 -17 -17 -18 -17 -17 -18 -18 -19 -18 -19 -19 -18 -18 -18
-14 -14 -15 -15 -16 -17 -18 -18 -18 -18 -18 -19 -19 -15 -16 -19 -20 -19 -18 -18 -18 -18 -18 -18 -18 -18 -18 -18 -18 -18 -20 -17 -19 -20 -20 -21 -21 -20 -20 -20 -19 -19 -19 -18
-15 -16 -16 -16 -17 -18 -18 -18 -19 -19 -19 -19 -21 -17 -17 -20 -20 -20 -19 -19 -19 -19 -19 -19 -19 -20 -20 -21 -22 -23 -21 -21 -24 -24 -24 -22 -22 -21 -20 -20 -20 -20 -19 -19
-17 -17 -17 -16 -18 -18 -18 -18 -19 -20 -21 -20 -23 -18 -19 -22 -21 -20 -20 -20 -20 -21 -22 -24 -23 -23 -23 -23 -24 -24 -22 -20 -23 -25 -24 -23 -21 -21 -20 -20 -20 -20 -20 -19
-18 -18 -18 -17 -18 -20 -20 -21 -21 -23 -23 -23 -22 -23 -22 -23 -23 -23 -23 -24 -25 -24 -24 -24 -23 -23 -24 -23 -23 -24 -23 -23 -24 -23 -23 -23 -23 -23 -22 -20 -20 -20 -20 -19
-18 -18 -19 -19 -19 -19 -19 -20 -21 -23 -23 -24 -23 -23 -24 -25 -25 -25 -25 -25 -24 -24 -24 -24 -24 -23 -23 -23 -24 -23 -24 -23 -23 -23 -23 -22 -22 -22 -22 -21 -21 -20 -20 -20
-20 -20 -21 -19 -20 -21 -21 -21 -24 -24 -24 -25 -26 -26 -26 -25 -25 -25 -25 -24 -24 -24 -24 -24 -24 -23 -23 -23 -23 -23 -24 -23 -23 -23 -22 -22 -22 -22 -22 -20 -21 -21 -20 -21
-21 -22 -23 -21 -22 -23 -22 -24 -26 -26 -27 -28 -27 -26 -25 -25 -25 -25 -25 -24 -24 -24 -24 -24 -24 -24 -23 -23 -23 -24 -23 -23 -23 -23 -23 -22 -22 -22 -22 -21 -21 -21 -20 -20
-23 -25 -25 -25 -25 -26 -26 -28 -29 -28 -28 -28 -27 -26 -25 -25 -25 -25 -25 -25 -25 -24 -24 -24 -24 -24 -24 -23 -23 -23 -23 -23 -23 -23 -22 -22 -21 -21 -21 -21 -21 -21 -20 -20
-25 -26 -27 -28 -28 -29 -30 -29 -28 -29 -28 -27 -27 -26 -25 -25 -25 -24 -24 -25 -25 -24 -24 -24 -25 -24 -24 -25 -24 -24 -23 -23 -23 -22 -21 -22 -22 -22 -21 -21 -21 -21 -21 -21
-27 -28 -29 -30 -29 -29 -30 -30 -29 -28 -27 -26 -26 -26 -25 -25 -25 -24 -25 -25 -25 -25 -25 -25 -24 -24 -24 -24 -24 -24 -24 -23 -23 -21 -22 -22 -22 -22 -22 -22 -22 -21 -21 -22
-31 -31 -30 -30 -30 -30 -30 -30 -29 -28 -27 -27 -26 -26 -25 -25 -25 -25 -25 -25 -25 -25 -25 -25 -25 -24 -24 -24 -24 -24 -24 -24 -24 -22 -22 -22 -21 -22 -22 -22 -22 -22 -22 -22
-32 -32 -31 -31 -31 -30 -30 -30 -28 -28 -27 -26 -26 -26 -25 -25 -25 -25 -25 -25 -25 -25 -24 -25 -25 -25 -24 -24 -24 -24 -24 -24 -24 -23 -22 -22 -22 -22 -22 -22 -22 -22 -22 -22
-32 -32 -32 -32 -31 -30 -29 -29 -28 -28 -27 -26 -26 -26 -25 -26 -25 -25 -25 -25 -25 -25 -25 -24 -24 -25 -24 -24 -24 -24 -23 -23 -23 -24 -24 -23 -22 -22 -22 -22 -22 -22 -23 -22
-33 -33 -33 -32 -31 -30 -29 -29 -28 -28 -27 -27 -26 -26 -26 -26 -25 -25 -25 -25 -25 -25 -25 -25 -25 -24 -25 -24 -24 -24 -24 -24 -24 -23 -23 -24 -23 -23 -23 -22 -22 -22 -23 -23
-32 -32 -31 -30 -29 -28 -29 -28 -28 -27 -27 -26 -26 -26 -26 -26 -26 -26 -25 -26 -26 -25 -25 -26 -25 -25 -25 -24 -24 -24 -24 -24 -24 -24 -23 -23 -24 -24 -23 -23 -23 -23 -23 -23
-30 -30 -29 -29 -29 -29 -28 -28 -27 -27 -26 -27 -26 -26 -26 -26 -25 -26 -26 -26 -26 -26 -26 -25 -25 -25 -25 -25 -25 -25 -24 -24 -24 -24 -24 -23 -23 -23 -24 -23 -23 -23 -23 -23
Height
5759 5760 5762 5757 5755 5752 5749 5747 5745 5744 5739 5734 5728 5731 5725 5720 5713 5709 5707 5703 5701 5700 5701 5700 5699 5699 5699 5699 5701 5702 5704 5704 5705 5706 5707 5708 5709 5710 5712 5712 5713 5714 5717 5718
5756 5751 5750 5749 5745 5742 5739 5735 5732 5730 5727 5720 5715 5720 5715 5707 5702 5697 5694 5689 5688 5689 5690 5687 5689 5688 5690 5689 5691 5692 5692 5693 5694 5695 5697 5696 5697 5698 5699 5701 5703 5704 5706 5707
5746 5748 5739 5738 5736 5732 5727 5723 5719 5715 5713 5713 5697 5702 5707 5697 5694 5688 5682 5676 5677 5676 5677 5678 5678 5679 5679 5679 5679 5680 5680 5683 5684 5686 5687 5685 5686 5685 5689 5690 5692 5693 5694 5695
5738 5733 5730 5727 5723 5719 5714 5709 5702 5698 5697 5698 5697 5678 5689 5695 5688 5680 5672 5670 5664 5663 5665 5666 5666 5668 5667 5666 5666 5667 5668 5671 5672 5674 5676 5675 5674 5675 5678 5678 5679 5680 5683 5684
5727 5722 5716 5714 5710 5705 5701 5693 5689 5688 5682 5683 5692 5669 5672 5681 5678 5673 5670 5656 5652 5650 5652 5650 5650 5651 5653 5653 5653 5654 5656 5657 5659 5661 5661 5663 5663 5661 5663 5664 5665 5668 5671 5673
5715 5709 5705 5699 5694 5692 5685 5679 5675 5674 5668 5663 5677 5664 5661 5667 5660 5659 5651 5645 5639 5638 5636 5638 5637 5637 5637 5636 5637 5637 5639 5642 5643 5645 5646 5648 5649 5650 5650 5650 5653 5655 5658 5660
5698 5694 5686 5680 5676 5673 5670 5667 5660 5658 5656 5649 5659 5652 5651 5654 5651 5642 5636 5634 5627 5623 5622 5623 5623 5623 5622 5621 5620 5620 5621 5624 5625 5626 5629 5631 5634 5635 5637 5638 5639 5641 5644 5648
5686 5682 5676 5670 5666 5660 5656 5655 5650 5639 5642 5641 5644 5637 5647 5642 5635 5632 5619 5615 5612 5610 5609 5606 5606 5603 5601 5601 5601 5600 5600 5602 5606 5608 5608 5609 5612 5615 5620 5623 5626 5625 5628 5632
5673 5667 5662 5657 5651 5649 5642 5641 5634 5626 5623 5618 5628 5628 5631 5628 5618 5606 5602 5603 5601 5596 5591 5586 5582 5577 5575 5574 5577 5577 5576 5576 5576 5582 5583 5584 5586 5591 5597 5602 5607 5610 5611 5615
5658 5653 5646 5637 5639 5632 5630 5624 5620 5613 5603 5598 5609 5611 5613 5602 5594 5594 5591 5583 5577 5571 5565 5561 5559 5556 5553 5549 5546 5546 5551 5548 5547 5550 5557 5557 5560 5566 5572 5578 5584 5589 5595 5597
5641 5639 5637 5626 5622 5621 5613 5606 5604 5597 5591 5580 5577 5595 5599 5574 5578 5572 5568 5562 5555 5549 5542 5537 5532 5528 5524 5520 5514 5517 5518 5516 5518 5520 5526 5530 5536 5541 5548 5556 5563 5568 5575 5583
5626 5619 5621 5617 5611 5605 5599 5592 5588 5581 5576 5571 5558 5562 5580 5562 5551 5546 5543 5541 5536 5526 5520 5513 5508 5503 5498 5494 5491 5486 5489 5496 5491 5493 5501 5506 5512 5518 5524 5531 5540 5547 5558 5564
5609 5603 5603 5611 5591 5588 5581 5577 5574 5562 5554 5550 5539 5538 5554 5538 5532 5529 5518 5514 5511 5503 5499 5497 5494 5491 5487 5483 5480 5477 5476 5477 5472 5472 5480 5486 5490 5498 5505 5513 5519 5530 5534 5544
5591 5590 5587 5590 5586 5571 5568 5562 5556 5548 5539 5534 5530 5520 5527 5517 5513 5509 5503 5499 5498 5497 5494 5491 5487 5483 5479 5474 5471 5468 5466 5465 5464 5463 5463 5469 5476 5478 5485 5494 5505 5516 5519 5521
5574 5573 5570 5571 5564 5558 5551 5547 5541 5532 5525 5515 5512 5509 5510 5505 5501 5499 5497 5495 5492 5490 5488 5485 5480 5475 5470 5467 5465 5461 5457 5454 5454 5454 5455 5459 5462 5466 5472 5479 5490 5501 5509 5514
5556 5553 5548 5555 5544 5538 5533 5528 5524 5519 5511 5502 5499 5499 5499 5496 5494 5493 5491 5489 5486 5484 5481 5480 5474 5468 5464 5459 5456 5454 5452 5450 5448 5448 5448 5450 5453 5457 5462 5470 5477 5488 5497 5505
5536 5531 5526 5528 5526 5518 5515 5515 5506 5503 5501 5496 5492 5490 5490 5490 5489 5486 5484 5482 5480 5478 5476 5473 5469 5465 5460 5455 5453 5450 5447 5444 5440 5440 5441 5444 5445 5450 5454 5464 5469 5476 5484 5492
5519 5514 5509 5505 5505 5499 5504 5503 5493 5491 5490 5487 5485 5484 5483 5485 5483 5480 5478 5475 5474 5473 5472 5469 5466 5462 5457 5453 5450 5448 5444 5440 5437 5436 5435 5438 5441 5444 5448 5453 5462 5471 5479 5485
5504 5500 5495 5490 5489 5490 5492 5491 5484 5480 5484 5481 5480 5479 5479 5480 5481 5477 5475 5472 5470 5469 5468 5466 5463 5460 5457 5452 5449 5445 5440 5437 5432 5429 5429 5434 5438 5444 5448 5454 5462 5469 5477 5486
5487 5481 5481 5482 5480 5480 5484 5483 5473 5476 5476 5476 5474 5474 5473 5473 5475 5471 5471 5469 5468 5466 5465 5463 5461 5459 5456 5452 5449 5445 5441 5434 5430 5426 5428 5434 5441 5447 5452 5457 5463 5470 5478 5484
5481 5476 5472 5471 5470 5470 5472 5464 5470 5471 5474 5470 5469 5469 5468 5466 5469 5470 5467 5465 5464 5462 5461 5460 5458 5455 5453 5450 5448 5446 5442 5437 5433 5431 5434 5438 5443 5446 5453 5458 5464 5470 5475 5481
5466 5465 5462 5460 5458 5458 5460 5463 5464 5465 5465 5464 5463 5464 5464 5464 5464 5463 5462 5461 5461 5460 5459 5458 5456 5452 5450 5449 5446 5444 5444 5441 5439 5436 5436 5440 5445 5448 5452 5458 5463 5469 5473 5479
5453 5452 5448 5449 5449 5452 5456 5457 5459 5458 5459 5459 5460 5461 5461 5459 5458 5458 5458 5457 5457 5456 5456 5455 5454 5452 5448 5444 5444 5444 5443 5442 5441 5442 5440 5441 5446 5449 5454 5458 5462 5467 5471 5478
5443 5441 5439 5439 5444 5446 5449 5453 5455 5455 5456 5457 5458 5458 5457 5456 5454 5454 5453 5453 5453 5452 5451 5450 5449 5447 5445 5442 5439 5440 5440 5440 5440 5441 5443 5444 5444 5448 5451 5456 5461 5465 5469 5474
5436 5436 5437 5439 5442 5445 5449 5451 5452 5453 5454 5455 5455 5454 5454 5452 5451 5450 5449 5448 5447 5446 5445 5444 5442 5440 5438 5436 5434 5433 5433 5434 5436 5437 5439 5441 5443 5443 5446 5451 5457 5461 5466 5471
5435 5436 5439 5442 5444 5445 5448 5449 5450 5450 5451 5452 5452 5451 5450 5449 5447 5446 5444 5442 5441 5439 5437 5434 5432 5430 5428 5427 5425 5425 5425 5425 5427 5430 5432 5435 5438 5441 5443 5448 5453 5458 5462 5466
Wind_Speed
39 39 36 40 43 46 50 53 54 53 55 59 61 64 60 60 64 66 65 58 52 44 40 40 38 39 36 35 31 29 31 35 36 34 37 39 39 39 42 46 49 48 47 47
39 44 43 43 46 47 50 51 53 55 57 63 65 63 59 62 66 65 60 60 44 39 36 42 39 39 35 32 29 30 31 33 35 36 40 43 45 45 47 49 51 48 47 44
42 43 50 52 52 54 54 58 58 59 60 58 63 59 55 47 52 53 56 53 40 38 39 38 40 40 41 36 34 32 32 33 36 39 42 47 50 50 50 51 49 48 43 45
42 43 44 47 52 57 62 58 60 61 57 54 47 47 67 43 43 38 42 46 51 44 44 38 39 40 40 40 39 37 38 39 41 44 46 46 49 51 51 53 54 55 49 47
48 49 52 57 58 62 60 55 58 55 56 52 58 52 64 44 45 45 38 53 55 54 43 43 44 45 46 46 45 45 44 44 45 47 48 50 50 51 51 52 54 55 53 50
50 53 56 61 65 58 59 57 56 56 55 58 53 54 57 46 44 26 41 42 48 48 49 47 46 46 49 51 51 53 52 50 51 50 51 52 53 53 54 56 54 54 54 56
58 58 60 69 70 63 62 57 57 57 56 55 52 53 56 52 28 31 45 53 59 60 57 55 55 53 56 57 59 61 62 60 60 62 59 62 60 58 59 60 61 61 61 61
61 62 65 69 66 59 59 56 55 56 56 58 58 60 56 50 50 56 58 65 66 67 67 66 65 69 70 70 70 71 71 71 69 70 72 75 73 71 67 64 65 68 66 65
68 66 68 66 64 58 58 56 57 60 61 62 59 60 56 55 47 49 66 66 67 69 73 77 79 81 82 82 81 82 83 85 86 84 84 82 81 80 81 76 65 68 68 65
65 69 66 63 63 59 57 58 58 59 62 64 62 63 63 58 71 69 63 64 70 74 81 83 83 85 86 88 89 89 87 89 90 91 89 87 82 77 76 64 61 62 62 66
69 66 61 63 61 57 58 60 62 64 68 69 71 66 63 65 64 74 79 82 83 84 86 86 87 88 89 91 91 91 76 93 83 75 75 69 67 68 66 66 63 67 66 64
67 62 61 60 55 57 60 63 64 63 62 68 70 78 71 72 73 76 78 78 80 82 79 80 80 76 72 66 62 57 72 70 66 63 59 68 68 71 73 70 72 72 67 67
60 60 59 53 60 61 64 67 70 73 70 75 71 84 71 70 76 77 71 68 60 51 48 37 36 36 34 36 37 37 29 39 47 50 51 62 72 68 66 66 72 69 70 76
59 60 60 58 58 64 66 67 67 61 66 65 71 69 66 43 43 42 38 33 17 22 21 23 25 25 28 28 27 27 25 32 31 39 43 50 61 64 57 64 64 65 54 72
63 63 63 64 69 69 70 71 69 64 65 65 64 57 38 29 27 24 21 20 19 22 22 23 28 30 30 25 21 25 23 24 24 22 24 29 35 45 48 50 60 67 64 61
68 70 68 67 67 66 70 70 61 64 61 50 36 27 27 28 27 27 25 24 24 22 25 24 30 22 23 23 22 21 21 24 25 31 29 29 33 35 38 41 44 55 61 62
69 67 65 70 64 64 71 58 48 46 32 33 27 29 24 21 22 24 23 23 24 22 21 23 24 22 24 20 19 18 22 25 22 22 25 23 27 35 36 39 42 47 51 57
62 58 58 61 58 59 48 26 37 34 31 29 29 29 26 20 24 14 19 18 19 19 20 21 18 15 17 15 11 18 22 24 24 26 27 25 28 29 32 43 44 37 36 34
56 54 53 52 48 37 32 27 31 21 21 18 20 26 29 22 12 14 21 16 14 16 16 21 19 18 17 18 15 17 13 6 8 17 14 18 24 27 26 30 32 35 31 30
55 52 45 33 32 32 24 27 27 24 17 8 14 15 21 27 20 14 15 12 13 14 16 16 13 13 15 15 13 17 18 15 12 4 13 30 25 23 26 22 32 29 28 31
29 30 32 33 33 39 36 28 24 21 11 5 16 15 12 22 16 17 14 17 18 16 14 13 15 16 16 18 19 15 16 20 18 11 23 24 21 25 28 31 25 29 30 29
32 31 34 34 35 30 18 24 18 9 5 4 17 20 10 14 15 20 17 18 15 15 13 12 16 19 19 17 19 19 14 14 16 12 9 26 24 26 25 25 31 28 23 20
28 27 29 26 16 13 21 18 6 6 12 14 17 14 17 14 16 27 20 23 24 17 16 16 18 19 21 25 21 18 12 12 14 11 15 15 24 26 26 23 24 25 24 23
23 24 22 14 18 19 16 5 7 13 13 18 16 17 17 17 16 14 17 20 15 19 22 24 24 25 26 27 28 24 21 18 16 15 14 15 16 26 20 26 26 23 23 24
15 11 9 18 14 5 2 8 6 12 8 6 10 12 11 12 14 17 19 21 25 27 29 32 34 34 31 31 32 32 29 29 25 23 21 22 19 18 22 26 29 24 27 26
11 11 16 11 2 6 10 7 8 8 9 9 10 14 15 17 19 23 26 29 32 34 36 37 37 39 40 41 42 41 39 38 34 31 28 28 27 25 22 30 27 30 33 30
Wind_Direction
280 282 290 287 289 293 296 293 291 290 289 289 290 294 295 290 285 281 283 283 278 274 270 266 264 262 259 252 249 254 250 250 250 253 257 255 256 252 254 257 259 262 263 262
279 284 285 286 287 290 290 292 292 291 291 290 290 292 291 288 288 286 281 278 274 271 265 264 262 264 263 260 258 254 260 256 259 259 258 255 255 252 252 255 258 260 262 263
284 289 290 291 291 293 293 290 290 289 288 292 289 289 298 290 296 291 293 287 278 268 266 267 265 264 265 268 265 258 259 259 262 265 261 262 259 256 258 257 260 262 259 258
287 291 294 294 297 297 295 288 287 287 288 293 288 280 303 291 286 292 289 285 273 269 262 256 259 262 264 263 263 262 261 260 261 263 263 260 261 262 261 259 257 258 258 258
292 292 295 298 298 295 298 290 291 289 287 288 298 282 302 288 280 277 276 274 285 282 282 265 260 256 261 263 263 260 260 259 257 257 258 260 262 262 260 259 258 259 258 257
296 293 296 298 299 299 294 292 291 291 288 284 298 288 295 292 289 276 272 268 270 279 276 274 274 270 266 267 269 268 266 263 262 261 262 262 262 259 259 261 262 262 260 261
297 300 303 299 304 299 294 291 290 286 286 289 287 279 288 283 268 265 271 279 280 283 277 273 276 276 274 272 270 268 267 263 263 266 266 265 261 258 256 257 259 260 261 265
295 297 297 300 297 294 290 290 287 283 284 282 282 280 286 285 277 283 276 277 277 281 281 279 277 277 277 274 271 268 266 264 261 261 262 263 263 262 259 256 256 257 257 258
294 295 296 293 292 292 291 289 285 286 286 283 282 280 280 282 279 267 274 280 283 281 277 276 276 275 275 271 269 270 270 270 268 265 265 264 263 261 259 261 258 254 257 254
295 295 292 289 291 291 290 288 288 287 285 283 283 283 283 277 279 286 287 284 282 280 279 280 281 279 278 278 276 273 270 270 269 268 266 266 264 260 259 253 249 246 252 254
292 289 288 288 289 291 290 289 288 286 286 287 287 283 285 284 289 285 283 284 286 286 285 285 283 281 280 279 279 276 275 273 271 266 263 258 251 250 242 243 242 242 248 248
286 286 285 287 290 287 286 284 285 285 284 284 284 286 289 289 289 289 289 288 287 290 288 285 280 279 281 281 278 286 277 275 273 262 250 239 237 233 232 232 232 236 241 243
286 285 286 288 290 289 288 290 291 289 289 288 290 291 295 295 294 296 296 297 293 280 280 285 287 290 290 293 286 284 260 253 269 252 248 240 238 231 229 230 232 232 233 238
287 288 287 287 283 283 285 285 285 285 284 290 288 298 303 290 288 292 289 283 280 288 293 290 296 295 296 293 293 289 276 261 266 264 255 243 241 250 254 227 230 228 236 234
288 288 285 286 285 283 284 284 286 289 292 294 299 298 296 281 283 283 287 274 272 295 292 295 294 294 293 286 284 292 284 282 269 251 240 239 238 240 243 243 231 230 238 243
284 286 286 286 285 285 286 288 293 293 295 296 293 287 274 277 280 281 280 280 277 287 290 295 309 296 308 300 286 278 277 263 260 251 245 253 246 230 230 235 237 237 240 240
287 289 290 288 289 290 289 298 293 295 286 264 267 265 270 271 274 279 290 282 272 276 295 303 305 312 314 295 286 273 278 271 258 238 233 236 235 230 233 230 217 225 228 233
289 292 292 293 292 289 298 288 284 274 272 265 266 269 266 275 289 286 303 298 273 280 284 298 314 329 331 280 262 275 283 292 281 250 256 255 240 239 231 215 218 214 208 194
289 288 287 287 291 288 286 287 281 272 257 268 270 269 261 278 277 272 303 296 282 268 279 300 308 308 315 336 346 2 349 261 278 266 228 222 192 182 182 176 187 191 186 186
292 291 289 285 278 277 277 286 259 267 256 272 260 292 270 267 254 275 286 288 300 299 291 298 302 306 316 328 330 335 341 354 20 159 191 177 185 185 180 183 183 186 185 191
275 274 274 274 274 269 277 264 254 244 239 286 260 241 219 213 234 262 282 286 293 293 286 283 298 309 320 324 327 336 337 339 11 93 178 189 199 209 205 203 189 198 202 206
270 262 258 266 263 277 239 257 220 237 185 231 253 243 273 247 245 279 277 279 279 285 289 288 298 309 310 315 320 324 326 325 344 356 153 193 187 204 222 220 208 209 202 199
269 271 271 256 239 225 229 221 245 218 222 243 242 269 268 314 276 259 268 275 268 272 278 280 286 288 293 297 297 304 314 314 331 320 321 192 183 212 225 219 208 197 194 204
268 273 276 261 205 198 206 255 241 234 251 246 256 288 298 302 308 301 282 282 278 274 278 281 281 276 272 274 277 279 284 288 291 301 286 283 227 208 209 211 208 201 201 202
253 238 162 147 167 151 307 173 206 246 255 261 288 286 290 298 296 294 288 281 279 279 280 283 283 281 275 267 264 265 266 275 275 283 289 257 261 253 214 211 200 209 204 209
148 155 137 121 93 136 167 196 236 252 263 270 287 298 297 298 296 292 290 288 287 289 291 292 292 290 282 275 272 269 263 266 268 269 273 244 238 237 228 207 216 214 213 217